DW20401 Weather Reports


Display with metric or nautical units.
time (UTC)temp
F
wind
direction
speed
MPH
gust
MPH
rain 1hr
in
rain 24hr
in
rain mn
in
humidity
%
barometer
mb
20210731155329 70 20 0.0 3.0 0.00 0.00 0.00 66 1013.3
20210731154824 70 267 1.0 3.0 0.00 0.00 0.00 63 1013.4
20210731154335 70 263 1.0 4.0 0.00 0.00 0.00 61 1013.4
20210731153821 70 263 1.0 4.0 0.00 0.00 0.00 63 1013.4
20210731153317 70 234 1.0 4.0 0.00 0.00 0.00 65 1013.4
20210731152833 69 227 1.0 3.0 0.00 0.00 0.00 68 1013.4
20210731152336 69 283 1.0 5.0 0.00 0.00 0.00 68 1013.3
20210731151835 68 289 2.0 5.0 0.00 0.00 0.00 68 1013.4
20210731151339 68 5 1.0 4.0 0.00 0.00 0.00 67 1013.5
20210731150837 68 5 1.0 4.0 0.00 0.00 0.00 63 1013.6
20210731150336 68 311 0.0 5.0 0.00 0.00 0.00 65 1013.6
20210731145833 68 311 1.0 5.0 0.00 0.00 0.00 63 1013.6
20210731145318 68 297 0.0 3.0 0.00 0.00 0.00 69 1013.6
20210731144822 68 296 1.0 5.0 0.00 0.00 0.00 65 1013.6
20210731144321 67 257 0.0 5.0 0.00 0.00 0.00 68 1013.8
20210731143821 67 330 2.0 4.0 0.00 0.00 0.00 66 1013.9
20210731143320 67 319 1.0 5.0 0.00 0.00 0.00 65 1013.8
20210731142834 67 319 1.0 5.0 0.00 0.00 0.00 69 1013.8
20210731142334 66 319 1.0 4.0 0.00 0.00 0.00 68 1013.9
20210731141834 66 306 2.0 5.0 0.00 0.00 0.00 67 1013.8
20210731141334 66 320 1.0 5.0 0.00 0.00 0.00 70 1013.8
20210731140829 66 306 1.0 5.0 0.00 0.00 0.00 68 1013.8
20210731140327 66 301 1.0 4.0 0.00 0.00 0.00 69 1013.8
20210731135824 66 301 0.0 4.0 0.00 0.00 0.00 69 1013.8
20210731135321 66 300 1.0 4.0 0.00 0.00 0.00 68 1013.8
20210731134825 66 302 0.0 4.0 0.00 0.00 0.00 70 1013.7
20210731134325 66 311 1.0 4.0 0.00 0.00 0.00 67 1013.7
20210731133819 66 315 2.0 4.0 0.00 0.00 0.00 68 1013.6
20210731133319 66 317 0.0 3.0 0.00 0.00 0.00 70 1013.6
20210731132836 66 319 1.0 3.0 0.00 0.00 0.00 73 1013.7
20210731132338 66 319 0.0 3.0 0.00 0.00 0.00 73 1013.9
20210731131836 65 319 1.0 3.0 0.00 0.00 0.00 75 1013.8
20210731131337 65 310 0.0 1.0 0.00 0.00 0.00 75 1013.8
20210731130836 64 310 0.0 3.0 0.00 0.00 0.00 75 1013.7
20210731130337 64 310 0.0 4.0 0.00 0.00 0.00 76 1013.8
20210731125833 64 310 0.0 4.0 0.00 0.00 0.00 78 1013.7
20210731125330 63 326 0.0 4.0 0.00 0.00 0.00 81 1013.7
20210731124825 63 327 2.0 4.0 0.00 0.00 0.00 77 1013.6
20210731124328 63 153 0.0 2.0 0.00 0.00 0.00 79 1013.7
20210731123820 63 153 0.0 5.0 0.00 0.00 0.00 79 1013.7
20210731123337 63 153 1.0 5.0 0.00 0.00 0.00 78 1013.6
20210731122838 63 279 0.0 1.0 0.00 0.00 0.00 80 1013.6
20210731122338 62 279 0.0 0.0 0.00 0.00 0.00 84 1013.5
20210731121836 62 279 0.0 1.0 0.00 0.00 0.00 85 1013.6
20210731121336 62 279 0.0 1.0 0.00 0.00 0.00 83 1013.6
20210731120834 62 279 0.0 1.0 0.00 0.00 0.00 86 1013.5
20210731120316 61 279 0.0 0.0 0.00 0.00 0.00 88 1013.5
20210731115837 60 279 0.0 0.0 0.00 0.00 0.00 90 1013.7
20210731115338 60 279 0.0 0.0 0.00 0.00 0.00 92 1013.4
20210731114836 59 279 0.0 0.0 0.00 0.00 0.00 94 1013.4
20210731114319 58 279 0.0 0.0 0.00 0.00 0.00 94 1013.5
20210731113833 58 279 0.0 0.0 0.00 0.00 0.00 95 1013.4
20210731113331 57 279 0.0 0.0 0.00 0.00 0.00 97 1013.5
20210731112828 56 279 0.0 0.0 0.00 0.00 0.00 98 1013.4
20210731112332 56 279 0.0 0.0 0.00 0.00 0.00 99 1013.3
20210731111828 55 279 0.0 0.0 0.00 0.00 0.00 100 1013.3
20210731111331 54 279 0.0 0.0 0.00 0.00 0.00 100 1013.3
20210731110831 53 279 0.0 1.0 0.00 0.00 0.00 100 1013.4
20210731110334 53 279 0.0 0.0 0.00 0.00 0.00 100 1013.4
20210731105831 52 279 0.0 0.0 0.00 0.00 0.00 100 1013.3
20210731105328 52 279 0.0 1.0 0.00 0.00 0.00 100 1013.2
20210731104822 51 279 0.0 1.0 0.00 0.00 0.00 100 1013.1
20210731104320 51 279 0.0 0.0 0.00 0.00 0.00 100 1013.1
20210731103833 51 279 0.0 0.0 0.00 0.00 0.00 100 1013.0
20210731103328 51 279 0.0 0.0 0.00 0.00 0.00 100 1013.1
20210731102825 51 279 0.0 0.0 0.00 0.00 0.00 100 1013.1
20210731102322 51 279 0.0 0.0 0.00 0.00 0.00 100 1013.0
20210731101820 52 279 0.0 0.0 0.00 0.00 0.00 100 1013.1
20210731101320 52 279 0.0 0.0 0.00 0.00 0.00 100 1013.1
20210731100837 52 279 0.0 0.0 0.00 0.00 0.00 100 1013.0
20210731100337 52 279 0.0 0.0 0.00 0.00 0.00 100 1013.0
20210731095832 52 279 0.0 1.0 0.00 0.00 0.00 100 1013.0
20210731095336 51 279 0.0 0.0 0.00 0.00 0.00 100 1013.0
20210731094834 51 279 0.0 0.0 0.00 0.00 0.00 100 1012.9
20210731094325 51 279 0.0 0.0 0.00 0.00 0.00 100 1012.9
20210731093822 51 279 0.0 1.0 0.00 0.00 0.00 100 1012.9
20210731093320 52 279 0.0 1.0 0.00 0.00 0.00 100 1012.9
20210731092823 52 279 0.0 0.0 0.00 0.00 0.00 100 1012.9
20210731092327 51 279 0.0 0.0 0.00 0.00 0.00 100 1012.6
20210731091823 51 279 0.0 0.0 0.00 0.00 0.00 100 1012.7
20210731091339 51 279 0.0 0.0 0.00 0.00 0.00 100 1012.6
20210731090836 51 279 0.0 0.0 0.00 0.00 0.00 100 1012.6
20210731090335 51 279 0.0 0.0 0.00 0.00 0.00 100 1012.6
20210731085833 51 279 0.0 0.0 0.00 0.00 0.00 100 1012.5
20210731085333 51 279 0.0 0.0 0.00 0.00 0.00 100 1012.4
20210731084830 51 279 0.0 1.0 0.00 0.00 0.00 100 1012.5
20210731084330 51 279 0.0 1.0 0.00 0.00 0.00 100 1012.4
20210731083827 52 279 0.0 0.0 0.00 0.00 0.00 100 1012.4
20210731083329 52 279 0.0 0.0 0.00 0.00 0.00 100 1012.5
20210731082822 52 279 0.0 1.0 0.00 0.00 0.00 100 1012.6
20210731082331 52 279 0.0 0.0 0.00 0.00 0.00 100 1012.6
20210731081831 52 279 0.0 0.0 0.00 0.00 0.00 100 1012.3
20210731081332 52 279 0.0 0.0 0.00 0.00 0.00 99 1012.2
20210731080830 52 279 0.0 1.0 0.00 0.00 0.00 99 1012.3
20210731080327 52 279 0.0 1.0 0.00 0.00 0.00 99 1012.4
20210731075820 53 279 0.0 0.0 0.00 0.00 0.00 98 1012.5
20210731075323 53 279 0.0 0.0 0.00 0.00 0.00 98 1012.6
20210731074819 53 279 0.0 0.0 0.00 0.00 0.00 98 1012.6
20210731074333 53 279 0.0 0.0 0.00 0.00 0.00 98 1012.6
20210731073834 53 279 0.0 0.0 0.00 0.00 0.00 97 1012.6
20210731073336 53 279 0.0 0.0 0.00 0.00 0.00 97 1012.6
20210731072829 54 279 0.0 0.0 0.00 0.00 0.00 96 1012.6
20210731072328 54 279 0.0 0.0 0.00 0.00 0.00 96 1012.6
20210731071825 54 279 0.0 0.0 0.00 0.00 0.00 96 1012.5
20210731071321 54 279 0.0 0.0 0.00 0.00 0.00 95 1012.5
20210731070837 55 279 0.0 0.0 0.00 0.00 0.00 94 1012.3
20210731070336 55 279 0.0 1.0 0.00 0.00 0.00 94 1012.4
20210731065831 55 279 0.0 1.0 0.00 0.00 0.00 93 1012.6
20210731065336 56 279 0.0 0.0 0.00 0.00 0.00 92 1012.8
20210731064832 56 279 0.0 0.0 0.00 0.00 0.00 92 1012.8
20210731064336 57 279 0.0 0.0 0.00 0.00 0.00 91 1012.6
20210731063837 57 279 0.0 0.0 0.00 0.00 0.00 90 1012.5
20210731062835 57 279 0.0 2.0 0.00 0.00 0.00 90 1012.4
20210731062335 56 279 0.0 2.0 0.00 0.00 0.00 90 1012.1
20210731061833 56 279 0.0 0.0 0.00 0.00 0.00 92 1012.1
20210731061322 56 279 0.0 0.0 0.00 0.00 0.00 92 1012.3
20210731060822 56 279 0.0 1.0 0.00 0.00 0.00 93 1012.4
20210731060323 56 279 0.0 1.0 0.00 0.00 0.00 93 1012.4
20210731055822 56 279 0.0 0.0 0.00 0.00 0.00 92 1012.6
20210731055340 56 279 0.0 0.0 0.00 0.00 0.00 91 1012.7
20210731054834 57 279 0.0 0.0 0.00 0.00 0.00 92 1012.6
20210731054336 57 279 0.0 1.0 0.00 0.00 0.00 92 1012.6
20210731053835 57 279 0.0 0.0 0.00 0.00 0.00 92 1012.5
20210731053333 57 279 0.0 0.0 0.00 0.00 0.00 89 1012.6
20210731052837 58 279 0.0 0.0 0.00 0.00 0.00 88 1012.6
20210731052335 58 279 0.0 0.0 0.00 0.00 0.00 87 1012.6
20210731051830 59 279 0.0 0.0 0.00 0.00 0.00 86 1012.6
20210731051329 59 279 0.0 2.0 0.00 0.00 0.00 85 1012.6
20210731050833 59 279 0.0 2.0 0.00 0.00 0.00 84 1012.7
20210731050339 59 279 1.0 2.0 0.00 0.00 0.00 86 1012.6
20210731045837 59 279 0.0 1.0 0.00 0.00 0.00 84 1012.7
20210731045333 59 279 0.0 0.0 0.00 0.00 0.00 85 1012.7
20210731044826 60 279 0.0 1.0 0.00 0.00 0.00 84 1012.7
20210731044327 60 279 0.0 3.0 0.00 0.00 0.00 84 1012.8
20210731043821 60 279 0.0 3.0 0.00 0.00 0.00 85 1012.7
20210731043322 60 278 0.0 1.0 0.00 0.00 0.00 84 1012.7
20210731042825 60 278 0.0 1.0 0.00 0.00 0.00 84 1012.7
20210731042330 60 278 0.0 1.0 0.00 0.00 0.00 84 1012.7
20210731041828 60 278 0.0 1.0 0.00 0.00 0.00 84 1012.5
20210731041330 60 278 0.0 0.0 0.00 0.00 0.00 84 1012.5
20210731040829 60 278 0.0 0.0 0.00 0.00 0.00 84 1012.6
20210731040331 60 278 0.0 0.0 0.00 0.00 0.00 83 1012.6
20210731035831 60 278 0.0 1.0 0.00 0.00 0.00 82 1012.5
20210731035333 61 278 0.0 1.0 0.00 0.00 0.00 84 1012.4
20210731034828 61 278 0.0 1.0 0.00 0.00 0.00 83 1012.5
20210731034326 61 278 0.0 0.0 0.00 0.00 0.00 83 1012.4
20210731033823 61 278 0.0 1.0 0.00 0.00 0.00 82 1012.5
20210731033319 62 278 0.0 1.0 0.00 0.00 0.00 82 1012.3
20210731032839 62 278 0.0 1.0 0.00 0.00 0.00 82 1012.2
20210731032336 62 278 0.0 1.0 0.00 0.00 0.00 82 1012.1
20210731031836 63 278 0.0 1.0 0.00 0.00 0.00 80 1012.3
20210731031318 63 278 0.0 2.0 0.00 0.00 0.00 80 1012.4
20210731030836 63 278 1.0 2.0 0.00 0.00 0.00 78 1012.4
20210731030338 63 278 0.0 4.0 0.00 0.00 0.00 79 1012.3
20210731025836 63 278 0.0 4.0 0.00 0.00 0.00 80 1012.3
20210731025336 62 278 0.0 2.0 0.00 0.00 0.00 81 1012.3
20210731024834 62 278 0.0 1.0 0.00 0.00 0.00 82 1012.2
20210731024332 63 278 0.0 1.0 0.00 0.00 0.00 82 1012.2
20210731023833 63 278 0.0 1.0 0.00 0.00 0.00 83 1012.2
20210731023334 63 278 0.0 1.0 0.00 0.00 0.00 83 1012.2
20210731022831 63 278 0.0 3.0 0.00 0.00 0.00 82 1012.1
20210731022332 63 278 0.0 1.0 0.00 0.00 0.00 81 1012.1
20210731021833 63 278 0.0 2.0 0.00 0.00 0.00 83 1012.0
20210731021335 63 278 0.0 2.0 0.00 0.00 0.00 82 1011.9
20210731020829 63 278 0.0 1.0 0.00 0.00 0.00 83 1011.8
20210731020328 63 278 0.0 3.0 0.00 0.00 0.00 81 1011.8
20210731015823 63 278 0.0 3.0 0.00 0.05 0.00 82 1011.8
20210731015326 63 277 0.0 1.0 0.00 0.05 0.00 82 1011.7
20210731014829 63 277 0.0 2.0 0.00 0.05 0.00 86 1011.7
20210731014332 63 277 0.0 2.0 0.00 0.05 0.00 85 1011.6
20210731013828 63 277 0.0 0.0 0.00 0.05 0.00 83 1011.5
20210731013325 63 277 0.0 0.0 0.00 0.05 0.00 82 1011.4
20210731012823 63 277 0.0 0.0 0.00 0.05 0.00 81 1011.3
20210731012327 63 277 0.0 1.0 0.00 0.05 0.00 83 1011.1
20210731011824 64 277 0.0 1.0 0.00 0.05 0.00 82 1011.0
20210731011325 64 277 0.0 0.0 0.00 0.05 0.00 80 1010.9
20210731010825 65 277 0.0 1.0 0.00 0.05 0.00 81 1010.8
20210731010333 65 277 0.0 3.0 0.00 0.05 0.00 79 1010.7
20210731005828 66 277 0.0 3.0 0.00 0.05 0.00 77 1010.4
20210731005328 66 286 0.0 1.0 0.00 0.05 0.00 75 1010.4
20210731004833 66 286 0.0 1.0 0.00 0.05 0.00 72 1010.3
20210731004330 67 286 0.0 0.0 0.00 0.05 0.00 72 1010.2
20210731003825 67 286 0.0 0.0 0.00 0.05 0.00 72 1010.1
20210731003324 67 286 0.0 1.0 0.00 0.05 0.00 72 1010.0
20210731002821 67 286 0.0 1.0 0.00 0.05 0.00 73 1010.1
20210731002322 67 286 0.0 3.0 0.00 0.05 0.00 71 1010.0
20210731001821 68 286 1.0 3.0 0.00 0.05 0.00 71 1009.8
20210731001324 68 290 0.0 1.0 0.00 0.05 0.00 72 1009.8
20210731000821 68 290 0.0 1.0 0.00 0.05 0.00 72 1009.8
20210731000317 69 290 0.0 1.0 0.00 0.05 0.00 69 1009.6
20210730235822 69 290 0.0 2.0 0.00 0.05 0.00 67 1009.7
20210730235325 70 290 0.0 4.0 0.00 0.05 0.00 65 1009.7
20210730234830 70 290 1.0 4.0 0.00 0.05 0.00 64 1009.6
20210730234335 70 288 0.0 2.0 0.00 0.05 0.00 67 1009.6
20210730233832 70 288 0.0 2.0 0.00 0.05 0.00 65 1009.4
20210730233328 70 288 0.0 2.0 0.00 0.05 0.00 64 1009.4
20210730232823 71 286 1.0 4.0 0.00 0.05 0.00 64 1009.2
20210730232328 71 284 0.0 4.0 0.00 0.05 0.00 62 1009.2
20210730231831 71 276 1.0 3.0 0.00 0.05 0.00 62 1009.2
20210730231331 71 292 1.0 4.0 0.00 0.05 0.00 59 1009.1
20210730230833 71 290 0.0 7.0 0.00 0.05 0.00 61 1009.0
20210730230333 71 297 3.0 7.0 0.00 0.05 0.00 61 1008.9
20210730225827 72 170 1.0 3.0 0.00 0.06 0.00 67 1008.9
20210730225338 72 285 0.0 1.0 0.00 0.06 0.00 66 1008.7
20210730224838 72 285 0.0 3.0 0.00 0.06 0.00 66 1008.7
20210730224321 73 288 1.0 4.0 0.00 0.06 0.00 64 1008.8
20210730223820 73 291 1.0 5.0 0.00 0.06 0.00 62 1008.7
20210730223319 72 291 2.0 5.0 0.00 0.06 0.00 62 1008.7
20210730222820 72 208 1.0 4.0 0.00 0.06 0.00 67 1008.5
20210730222334 73 337 0.0 2.0 0.00 0.06 0.00 67 1008.5
20210730221834 73 342 0.0 6.0 0.00 0.06 0.00 66 1008.4
20210730221330 74 342 0.0 6.0 0.00 0.06 0.00 62 1008.3
20210730220831 74 304 0.0 9.0 0.00 0.06 0.00 60 1008.2
20210730220331 74 207 2.0 10.0 0.00 0.06 0.00 59 1008.1
20210730215834 74 327 3.0 10.0 0.00 0.12 0.00 57 1008.2
20210730215332 74 285 1.0 5.0 0.00 0.12 0.00 59 1008.0
20210730214827 74 288 1.0 4.0 0.00 0.12 0.00 60 1008.0
20210730214334 74 285 1.0 5.0 0.00 0.12 0.00 60 1007.9
20210730213827 74 291 0.0 5.0 0.00 0.12 0.00 60 1007.8
20210730213327 75 320 1.0 6.0 0.00 0.12 0.00 59 1007.8
20210730212830 75 312 2.0 6.0 0.00 0.12 0.00 58 1007.8
20210730212338 75 269 3.0 5.0 0.00 0.12 0.00 57 1007.8
20210730211820 75 304 1.0 4.0 0.00 0.12 0.00 57 1007.6
20210730211335 75 303 2.0 7.0 0.00 0.12 0.00 56 1007.6
20210730210833 76 275 1.0 7.0 0.00 0.12 0.00 55 1007.6
20210730210334 76 323 2.0 7.0 0.00 0.12 0.00 53 1007.7
20210730205819 76 360 2.0 6.0 0.00 0.18 0.00 54 1007.5
20210730205321 77 308 0.0 6.0 0.00 0.18 0.00 55 1007.5
20210730204819 77 104 3.0 9.0 0.00 0.18 0.00 53 1007.4
20210730204322 77 328 1.0 9.0 0.00 0.18 0.00 54 1007.4
20210730203822 77 228 1.0 4.0 0.00 0.18 0.00 57 1007.4
20210730203319 77 318 1.0 11.0 0.00 0.18 0.00 57 1007.3
20210730202833 77 295 3.0 11.0 0.00 0.18 0.00 54 1007.4
20210730202332 77 328 2.0 7.0 0.00 0.18 0.00 55 1007.3
20210730201830 77 326 3.0 7.0 0.00 0.18 0.00 56 1007.2
20210730201325 77 296 2.0 7.0 0.00 0.18 0.00 55 1007.2
20210730200832 77 310 2.0 6.0 0.00 0.18 0.00 56 1007.4
20210730200319 77 315 3.0 8.0 0.00 0.18 0.00 58 1007.3
20210730195834 78 271 3.0 10.0 0.00 0.18 0.00 55 1007.3
20210730195336 78 319 3.0 10.0 0.00 0.18 0.00 56 1007.1
20210730194827 78 265 2.0 6.0 0.00 0.18 0.00 56 1007.1
20210730194323 79 326 3.0 6.0 0.00 0.18 0.00 56 1007.0
20210730193823 79 330 1.0 5.0 0.00 0.18 0.00 58 1006.8
20210730193328 79 321 1.0 7.0 0.00 0.18 0.00 59 1006.8
20210730192835 79 322 2.0 15.0 0.00 0.18 0.00 56 1006.7
20210730192334 79 298 3.0 9.0 0.00 0.18 0.00 57 1006.5
20210730191825 79 253 2.0 10.0 0.00 0.18 0.00 59 1006.5
20210730191328 79 346 2.0 6.0 0.00 0.18 0.00 60 1006.4
20210730190824 79 323 3.0 7.0 0.00 0.18 0.00 58 1006.5
20210730190326 79 321 2.0 7.0 0.00 0.18 0.00 58 1006.5
20210730185838 79 308 2.0 6.0 0.00 0.18 0.00 59 1006.7
20210730185320 79 290 2.0 6.0 0.00 0.18 0.00 60 1006.6
20210730184831 79 311 2.0 9.0 0.00 0.18 0.00 58 1006.6
20210730184328 79 309 1.0 9.0 0.00 0.18 0.00 62 1006.6
20210730183823 79 302 0.0 7.0 0.00 0.18 0.00 62 1006.5
20210730183338 79 242 1.0 8.0 0.00 0.18 0.00 61 1006.5
20210730182829 79 318 4.0 8.0 0.00 0.18 0.00 60 1006.5
20210730182347 79 306 1.0 4.0 0.00 0.18 0.00 62 1006.5
20210730181828 78 317 0.0 8.0 0.00 0.18 0.00 64 1006.5
20210730181323 79 311 3.0 7.0 0.00 0.18 0.00 61 1006.5
20210730180836 80 309 4.0 7.0 0.00 0.18 0.00 59 1006.5
20210730180331 80 323 1.0 5.0 0.00 0.18 0.00 61 1006.3
20210730175829 79 126 1.0 8.0 0.00 0.18 0.00 64 1006.3
20210730175330 79 316 2.0 8.0 0.00 0.18 0.00 62 1006.3
20210730174824 79 148 2.0 9.0 0.00 0.18 0.00 64 1006.3
20210730174344 80 297 1.0 9.0 0.00 0.18 0.00 62 1006.2
20210730173825 80 155 2.0 6.0 0.00 0.18 0.00 63 1006.2
20210730173320 79 329 2.0 6.0 0.00 0.18 0.00 61 1006.1
20210730172824 79 322 1.0 6.0 0.00 0.18 0.00 62 1006.2
20210730172320 80 153 1.0 6.0 0.00 0.18 0.00 67 1006.2
20210730171831 79 313 2.0 8.0 0.00 0.19 0.00 64 1006.2
20210730171330 79 306 1.0 8.0 0.00 0.19 0.00 64 1006.2
20210730170825 79 316 3.0 7.0 0.00 0.19 0.00 63 1006.1
20210730170327 79 326 1.0 7.0 0.00 0.19 0.00 65 1006.2
20210730165821 79 321 1.0 9.0 0.00 0.19 0.00 64 1006.1
20210730165337 79 326 3.0 9.0 0.00 0.19 0.00 64 1005.9
20210730164830 79 331 1.0 8.0 0.00 0.19 0.00 66 1006.1
20210730164329 79 355 1.0 6.0 0.00 0.19 0.00 68 1006.0
20210730163829 78 261 1.0 8.0 0.00 0.19 0.00 69 1006.0
20210730163334 78 288 0.0 8.0 0.00 0.19 0.00 70 1006.1
20210730162839 78 243 1.0 4.0 0.00 0.19 0.00 70 1006.0
20210730162342 77 242 0.0 6.0 0.00 0.19 0.00 72 1005.9
20210730161827 77 313 3.0 8.0 0.00 0.19 0.00 70 1006.0
20210730161327 77 311 3.0 8.0 0.00 0.19 0.00 71 1006.0
20210730160819 77 313 4.0 8.0 0.00 0.19 0.00 70 1006.1
20210730160319 77 322 0.0 7.0 0.00 0.19 0.00 75 1006.0
20210730155838 77 307 2.0 7.0 0.00 0.19 0.00 70 1006.0